Alliance, NE

7:10 AM MDT on August 23, 2017 (GMT -0600)
Alliance Municipal

Weather History for KAIA - December, 2012

Change the Weather History Date:

Monday, December 10, 2012

  Actual Average Record
Temperature  
Mean Temperature 16 °F 24 °F  
Max Temperature 36 °F 39 °F 65 °F (1981)
Min Temperature -4 °F 9 °F -21 °F (2009)
Degree Days  
Heating Degree Days 49 41  
Month to date heating degree days 325 401  
Since 1 July heating degree days 1888 2200  
Cooling Degree Days 0 0  
Month to date cooling degree days 0 0  
Year to date cooling degree days 959 564  
Moisture  
Dew Point 9 °F    
Average Humidity 62    
Maximum Humidity 88    
Minimum Humidity 35    
Precipitation  
Precipitation 0.00 in 0.01 in 0.50 in (1901)
Month to date precipitation T 0.17  
Year to date precipitation 6.77 15.51  
Sea Level Pressure  
Sea Level Pressure 30.01 in    
Wind  
Wind Speed 14 mph (WNW)    
Max Wind Speed 25 mph    
Max Gust Speed 32 mph    
Visibility 10 miles    
Events      
T = Trace of Precipitation, MM = Missing Value Source: NWS Daily Summary

Daily Weather History Graph

Daily Weather History Graph

Search for Another Location

Airport or City:

Trip Planner

Search our weather history database for the weather conditions in past years. The results will help you decide how hot, cold, wet, or windy it might be!

Date:

Astronomy

Dec. 10, 2012 Rise Set
Actual Time 7:08 AM MST 4:19 PM MST
Civil Twilight 6:37 AM MST 4:51 PM MST
Nautical Twilight 6:02 AM MST 5:26 PM MST
Astronomical Twilight 5:28 AM MST 6:00 PM MST
Moon 3:53 AM MST (12/10) 2:12 PM MST (12/10)
Length of Visible Light 10h 13m
Length of Day
9h 10m
Waning Crescent, 10% of the Moon is Illuminated
Dec 10
Waning Crescent
Dec 13
New
Dec 19
First Quarter
Dec 28
Full
Jan 4
Last Quarter

Hourly Weather History & Observations

Time (MST) Temp. Windchill Dew Point Humidity Pressure Visibility Wind Dir Wind Speed Gust Speed Precip Events Conditions
12:53 AM 1.9 °F -9.2 °F -5.1 °F 72% 30.17 in 10.0 mi SSW 5.8 mph - N/A   Clear
1:53 AM -0.0 °F -9.9 °F -7.1 °F 72% 30.13 in 10.0 mi WSW 4.6 mph - N/A   Clear
2:53 AM 7.0 °F 0.1 °F -0.9 °F 70% 30.08 in 10.0 mi West 3.5 mph - N/A   Clear
3:53 AM 8.1 °F -3.2 °F -0.9 °F 67% 30.05 in 10.0 mi SW 6.9 mph - N/A   Clear
4:53 AM 7.0 °F -5.7 °F -0.9 °F 70% 30.04 in 10.0 mi WSW 8.1 mph - N/A   Clear
5:53 AM 9.0 °F -4.2 °F 1.0 °F 70% 30.04 in 10.0 mi WNW 9.2 mph - N/A   Overcast
6:53 AM 19.9 °F 5.2 °F 10.0 °F 65% 30.02 in 10.0 mi WNW 17.3 mph - N/A   Mostly Cloudy
7:53 AM 18.0 °F 9.8 °F 8.1 °F 65% 30.04 in 10.0 mi West 5.8 mph - N/A   Overcast
8:53 AM 27.0 °F 17.3 °F 9.0 °F 47% 30.02 in 10.0 mi WNW 10.4 mph - N/A   Overcast
9:53 AM 30.9 °F 18.1 °F 8.1 °F 38% 29.99 in 10.0 mi WNW 21.9 mph 26.5 mph N/A   Overcast
10:53 AM 33.1 °F 20.9 °F 9.0 °F 37% 29.98 in 10.0 mi NW 21.9 mph 26.5 mph N/A   Overcast
11:53 AM 36.0 °F 24.4 °F 10.9 °F 36% 29.93 in 10.0 mi WNW 23.0 mph 31.1 mph N/A   Overcast
12:53 PM 34.0 °F 23.4 °F 15.1 °F 46% 29.93 in 10.0 mi NW 17.3 mph 23.0 mph N/A   Overcast
1:53 PM 34.0 °F 21.8 °F 16.0 °F 48% 29.93 in 10.0 mi NW 23.0 mph 32.2 mph N/A   Scattered Clouds
2:53 PM 36.0 °F 24.2 °F 15.1 °F 43% 29.90 in 10.0 mi NW 24.2 mph 28.8 mph N/A   Partly Cloudy
3:53 PM 33.1 °F 21.2 °F 16.0 °F 50% 29.93 in 10.0 mi NW 20.7 mph 31.1 mph N/A   Clear
4:53 PM 30.0 °F 18.3 °F 18.0 °F 61% 29.97 in 10.0 mi NW 17.3 mph 25.3 mph N/A   Clear
5:53 PM 27.0 °F 16.1 °F 19.0 °F 72% 30.00 in 10.0 mi NW 12.7 mph - N/A   Clear
6:53 PM 26.1 °F 15.0 °F 18.0 °F 71% 29.99 in 10.0 mi NW 12.7 mph - N/A   Clear
7:53 PM 25.0 °F 13.1 °F 15.1 °F 66% 30.00 in 10.0 mi NW 13.8 mph - N/A   Clear
8:53 PM 23.0 °F 11.1 °F 15.1 °F 72% 30.00 in 10.0 mi NW 12.7 mph - N/A   Clear
9:53 PM 19.0 °F 6.8 °F 14.0 °F 81% 30.01 in 10.0 mi WNW 11.5 mph - N/A   Partly Cloudy
10:53 PM 14.0 °F 1.2 °F 10.9 °F 88% 30.04 in 10.0 mi West 10.4 mph - N/A   Clear
11:53 PM 10.9 °F -2.6 °F 7.0 °F 84% 30.03 in 10.0 mi West 10.4 mph - N/A   Clear